Hourly Weather Roundup
Issued by NWS Central Illinois

Home | Current Version | Previous Version | Text Only | Print | Product List | Glossary On
Versions: 1 2 3 4 5 6 7 8 9 10 11 12 13 14 15 16 17 18 19 20 21 22 23 24 25 26 27 28 29 30 31 32 33 34 35 36 37 38 39 40 41 42 43 44 45 46 47 48 49 50
000
NZUS43 KILX 271710
HWRILX

Area Weather Roundup
National Weather Service Lincoln IL
1200 PM CDT SAT MAY 27 2017

NOTE:  "FAIR" indicates few or no clouds below 12,000 feet, with
       no sigificant weather and/or obstructions to visibility.


CITY           SKY/WX    TMP DP  RH WIND       PRES   REMARKS
Bloomington    MOSUNNY   71  62  73 NE7       29.93R
Champaign      CLOUDY    67  60  78 VRB5      29.93R
Danville       CLOUDY    64  61  91 CALM      29.90R
Decatur        CLOUDY    67  62  84 NE6       29.92F
Effingham      SUNNY     73  67  81 NW6       29.92R
Flora          MOSUNNY   81  67  61 CALM      29.89S HX  83
Galesburg      MOSUNNY   68  61  77 CALM      29.93R
Jacksonville   PTSUNNY   66  62  86 E3        29.92S
Lacon          PTSUNNY   67  61  83 CALM      29.92S
Lawrenceville  PTSUNNY   79  66  64 CALM      29.88S HX  81
Litchfield     SUNNY     70  64  81 NE6       29.91S
$$


CITY           SKY/WX    TMP DP  RH WIND       PRES   REMARKS
Lincoln        MOSUNNY   75  64  67 CALM      29.91S
Macomb         PTSUNNY   67  65  95 NE5       29.95F
Mattoon        CLOUDY    72  63  73 NE6       29.90S
Mt Carmel AP   PTSUNNY   79  66  64 S3        29.87F HX  81
Olney-Noble AP SUNNY     80  66  63 CALM      29.89R HX  82
Paris AP       CLOUDY    68  64  87 NE5       29.92S
Peoria         SUNNY     71  63  75 VRB3      29.92R
Pontiac        MOSUNNY   72  65  78 E5        29.91F
Rantoul        CLOUDY    69  64  83 SE7       29.93R
Robinson       MOSUNNY   73  66  78 N8        29.90S
Springfield    MOSUNNY   76  64  66 E7        29.91S
Taylorville    PTSUNNY   71  63  75 NE7       29.91F
$$

...REGIONAL REPORTS...


CITY           SKY/WX    TMP DP  RH WIND       PRES   REMARKS
Chicago O`Hare MOSUNNY   70  52  52 CALM      29.91S
Kankakee       CLOUDY    73  62  69 CALM      29.91R
Moline         CLOUDY    68  60  75 CALM      29.93S
Mount Sterling MOSUNNY   69  63  82 E5        29.91F
Mount Vernon     N/A     82  70  66 VRB5      29.88S HX  86
Pittsfield     SUNNY     71  64  78 SE3       29.92F
Quincy         SUNNY     73  63  70 E5        29.92R
Rockford       CLOUDY    71  60  68 S3        29.93F
$$


CITY           SKY/WX    TMP DP  RH WIND       PRES   REMARKS
Burlington     MOSUNNY   67  62  84 E6        29.92F
Cedar Rapids   CLOUDY    67  63  87 VRB6      29.92S
Des Moines     TSTM      63  61  94 SE3       29.90R
Kirksville     CLOUDY    75  63  66 NW7       29.91F
Ottumwa        CLOUDY    73  63  70 SE7       29.91F
St Louis       MOSUNNY   83  64  52 E7        29.89R HX  84
$$


CITY           SKY/WX    TMP DP  RH WIND       PRES   REMARKS
Terre Haute    PTSUNNY   74  62  66 N3        29.90S
Evansville     CLOUDY    82  69  64 S10G17    29.89R HX  85
Indianapolis   MOSUNNY   73  63  70 VRB7      29.90R
Lafayette      CLOUDY    66  62  87 VRB5      29.91R
Madison        PTSUNNY   69  58  67 W6        29.91S
Milwaukee      MOSUNNY   69  55  60 SE9       29.92S
$$





USA.gov is the U.S. government's official web portal to all federal, state and local government web resources and services.